sat.trackr.live / text

‹ back to catalog

QIANFAN-47

NORAD 62248 · 2024-232M

PAYLOAD ACTIVE UNKNOWN

§ Identity

Operator
Country
PRC
Launch date
2024-12-05
Launch site
TAISC
Launch vehicle
Mass (kg)
RCS (m²)

External: N2YO · Heavens-Above · Gunter

§ Orbital elements

Epoch: 2026-05-25T03:00:30.310848Z

Period
106.59 min
Inclination
89.0097°
Eccentricity
0.0016870
Mean motion
13.51009871 rev/d
Perigee alt
1,056.0 km
Apogee alt
1,081.1 km
Semi-major
7,446.7 km
B*
1.2496e-4
RAAN
24.7955°
Arg perigee
85.1647°
Mean anomaly
275.1430°
Rev number
12,130

§ Raw data

QIANFAN-471 62248U 24232M   26145.12535082  .00000093  00000+0  12496-3 0  99952 62248  89.0097  24.7955 0016870  85.1647 275.1430 13.51009871121306

JSON: /api/v1/satellites/62248 · /tle

For live sub-satellite position, see the globe view (requires WebGL).

§ Visibility from observer

Set your observer location to see the next 7 days of passes ≥ 10°. The values pass through the URL so the page stays shareable.

No JS? Fill the form by hand. The geolocation button needs JavaScript.